BON01PS FAOR-FACT

Flight info

Callsign BON01PS
Flight time 1h 45m
Altitude 34000
Route RAGUL3A RAGUL UQ10 DUMDO UZ26 ERDAS ERDAS1B
Aircraft A320/M-SDE3FGHIRWY/LB1

Departure

Time 2026-05-06 18:28
Airport O.R. Tambo International Airport (FAOR)

Arrival

Time 2026-05-06 20:14
Airport Cape Town International Airport (FACT)
Time Latitude Longitude Altitude Speed Heading
2026-05-06 18:11 -26.13682 28.23107 5519 ft 0 kts
2026-05-06 18:17 -26.13695 28.23105 5548 ft 4 kts
2026-05-06 18:18 -26.13721 28.23098 5548 ft 4 kts 26°
2026-05-06 18:18 -26.13740 28.23082 5551 ft 4 kts 74°
2026-05-06 18:18 -26.13742 28.23071 5549 ft 0 kts 96°
2026-05-06 18:21 -26.13742 28.23073 5548 ft 3 kts 96°
2026-05-06 18:22 -26.13747 28.23127 5548 ft 8 kts 96°
2026-05-06 18:22 -26.13754 28.23197 5547 ft 11 kts 96°
2026-05-06 18:22 -26.13767 28.23289 5547 ft 13 kts 110°
2026-05-06 18:22 -26.13847 28.23348 5549 ft 15 kts 149°
2026-05-06 18:23 -26.13882 28.23448 5556 ft 11 kts 105°
2026-05-06 18:23 -26.13895 28.23503 5562 ft 5 kts 103°
2026-05-06 18:23 -26.13900 28.23523 5562 ft 0 kts 106°
2026-05-06 18:26 -26.13908 28.23552 5563 ft 8 kts 106°
2026-05-06 18:26 -26.13924 28.23616 5564 ft 9 kts 106°
2026-05-06 18:26 -26.13924 28.23660 5564 ft 4 kts 36°
2026-05-06 18:26 -26.13915 28.23663 5564 ft 0 kts 17°
2026-05-06 18:27 -26.13914 28.23663 5564 ft 1 kts 17°
2026-05-06 18:27 -26.13810 28.23695 5561 ft 46 kts 15°
2026-05-06 18:27 -26.13272 28.23857 5549 ft 112 kts 17°
2026-05-06 18:27 -26.12353 28.24141 5540 ft 161 kts 16°
2026-05-06 18:28 -26.11143 28.24520 5578 ft 196 kts 13°
2026-05-06 18:28 -26.09888 28.24939 6554 ft 181 kts 12°
2026-05-06 18:28 -26.08723 28.25380 7325 ft 175 kts 10°
2026-05-06 18:28 -26.07487 28.25764 7580 ft 194 kts
2026-05-06 18:29 -26.06102 28.26150 7795 ft 216 kts
2026-05-06 18:29 -26.04567 28.26301 7966 ft 228 kts 342°
2026-05-06 18:29 -26.03138 28.25514 8176 ft 238 kts 311°
2026-05-06 18:29 -26.02262 28.23910 8514 ft 252 kts 282°
2026-05-06 18:30 -26.02260 28.21961 9158 ft 259 kts 256°
2026-05-06 18:30 -26.03055 28.20160 9969 ft 264 kts 233°
2026-05-06 18:30 -26.04350 28.18653 10521 ft 278 kts 228°
2026-05-06 18:30 -26.05777 28.17066 10707 ft 302 kts 228°
2026-05-06 18:31 -26.07320 28.15361 10932 ft 322 kts 228°
2026-05-06 18:31 -26.08957 28.13555 11120 ft 342 kts 228°
2026-05-06 18:31 -26.10691 28.11641 11275 ft 360 kts 228°
2026-05-06 18:31 -26.12487 28.09660 11763 ft 366 kts 228°
2026-05-06 18:32 -26.14310 28.07654 12338 ft 371 kts 228°
2026-05-06 18:32 -26.16157 28.05620 12937 ft 375 kts 228°
2026-05-06 18:32 -26.18016 28.03564 13546 ft 378 kts 228°
2026-05-06 18:32 -26.19912 28.01463 13783 ft 391 kts 228°
2026-05-06 18:33 -26.21860 27.99301 14120 ft 399 kts 228°
2026-05-06 18:33 -26.23840 27.97107 14586 ft 402 kts 228°
2026-05-06 18:33 -26.25832 27.94900 15076 ft 405 kts 228°
2026-05-06 18:33 -26.27828 27.92682 15573 ft 407 kts 229°
2026-05-06 18:34 -26.29814 27.90474 16066 ft 409 kts 229°
2026-05-06 18:34 -26.31835 27.88228 16544 ft 412 kts 229°
2026-05-06 18:34 -26.33866 27.85968 17034 ft 414 kts 229°
2026-05-06 18:34 -26.35909 27.83693 17528 ft 416 kts 229°
2026-05-06 18:35 -26.37960 27.81406 17975 ft 419 kts 229°
2026-05-06 18:35 -26.40027 27.79101 18418 ft 422 kts 229°
2026-05-06 18:35 -26.42111 27.76776 18818 ft 424 kts 229°
2026-05-06 18:35 -26.44203 27.74443 19221 ft 427 kts 229°
2026-05-06 18:36 -26.46306 27.72098 19613 ft 429 kts 229°
2026-05-06 18:36 -26.48424 27.69738 19981 ft 432 kts 229°
2026-05-06 18:36 -26.50555 27.67360 20361 ft 434 kts 229°
2026-05-06 18:36 -26.52691 27.64975 20702 ft 436 kts 229°
2026-05-06 18:37 -26.54842 27.62574 21031 ft 438 kts 229°
2026-05-06 18:37 -26.57000 27.60162 21340 ft 440 kts 229°
2026-05-06 18:37 -26.59172 27.57728 21573 ft 444 kts 230°
2026-05-06 18:37 -26.61357 27.55277 21833 ft 446 kts 229°
2026-05-06 18:38 -26.63558 27.52809 22110 ft 449 kts 229°
2026-05-06 18:38 -26.65768 27.50327 22415 ft 451 kts 230°
2026-05-06 18:38 -26.67987 27.47833 22724 ft 453 kts 229°
2026-05-06 18:38 -26.70217 27.45329 23047 ft 455 kts 229°
2026-05-06 18:39 -26.72452 27.42822 23368 ft 457 kts 229°
2026-05-06 18:39 -26.74699 27.40302 23697 ft 457 kts 229°
2026-05-06 18:39 -26.76946 27.37782 24037 ft 457 kts 229°
2026-05-06 18:40 -26.81420 27.32748 24788 ft 455 kts 230°
2026-05-06 18:40 -26.83645 27.30233 25198 ft 454 kts 230°
2026-05-06 18:40 -26.85862 27.27727 25624 ft 452 kts 230°
2026-05-06 18:40 -26.88084 27.25216 25888 ft 455 kts 230°
2026-05-06 18:41 -26.90320 27.22695 26214 ft 456 kts 230°
2026-05-06 18:41 -26.92556 27.20172 26596 ft 456 kts 231°
2026-05-06 18:41 -26.94786 27.17656 27036 ft 455 kts 231°
2026-05-06 18:41 -26.97010 27.15145 27486 ft 453 kts 231°
2026-05-06 18:42 -26.99223 27.12648 27949 ft 451 kts 231°
2026-05-06 18:42 -27.01435 27.10149 28410 ft 450 kts 231°
2026-05-06 18:42 -27.03630 27.07662 28879 ft 448 kts 231°
2026-05-06 18:42 -27.05820 27.05178 29392 ft 447 kts 231°
2026-05-06 18:43 -27.07999 27.02703 29866 ft 445 kts 231°
2026-05-06 18:43 -27.10170 27.00236 30305 ft 444 kts 232°
2026-05-06 18:43 -27.12337 26.97773 30672 ft 443 kts 232°
2026-05-06 18:43 -27.14501 26.95312 31037 ft 443 kts 232°
2026-05-06 18:44 -27.16637 26.92884 31387 ft 442 kts 232°
2026-05-06 18:44 -27.18827 26.90395 31738 ft 442 kts 232°
2026-05-06 18:44 -27.20955 26.87974 32087 ft 442 kts 232°
2026-05-06 18:44 -27.23144 26.85484 32470 ft 441 kts 232°
2026-05-06 18:45 -27.25270 26.83060 32838 ft 441 kts 232°
2026-05-06 18:45 -27.27419 26.80605 33207 ft 440 kts 232°
2026-05-06 18:45 -27.29566 26.78155 33576 ft 440 kts 232°
2026-05-06 18:45 -27.31019 26.76499 33826 ft 440 kts 232°
2026-05-06 18:46 -27.33861 26.73253 34276 ft 439 kts 232°
2026-05-06 18:46 -27.36001 26.70808 34599 ft 438 kts 232°
2026-05-06 18:46 -27.38136 26.68365 34933 ft 437 kts 232°
2026-05-06 18:46 -27.40266 26.65925 35320 ft 437 kts 232°
2026-05-06 18:47 -27.42393 26.63490 35572 ft 437 kts 232°
2026-05-06 18:47 -27.44526 26.61046 35839 ft 437 kts 232°
2026-05-06 18:47 -27.46659 26.58599 36017 ft 438 kts 232°
2026-05-06 18:48 -27.50916 26.53714 36058 ft 436 kts 232°
2026-05-06 18:48 -27.55163 26.48848 36054 ft 435 kts 232°
2026-05-06 18:49 -27.59409 26.43977 36051 ft 435 kts 232°
2026-05-06 18:49 -27.63645 26.39102 36049 ft 435 kts 232°
2026-05-06 18:50 -27.67878 26.34220 36049 ft 435 kts 232°
2026-05-06 18:50 -27.72111 26.29332 36050 ft 435 kts 232°
2026-05-06 18:51 -27.76339 26.24438 36055 ft 434 kts 231°
2026-05-06 18:51 -27.80553 26.19573 36043 ft 433 kts 231°
2026-05-06 18:52 -27.84729 26.14734 36040 ft 433 kts 231°
2026-05-06 18:52 -27.88926 26.09864 36038 ft 433 kts 231°
2026-05-06 18:53 -27.93118 26.04984 36032 ft 433 kts 231°
2026-05-06 18:53 -27.97315 26.00106 36035 ft 432 kts 231°
2026-05-06 18:54 -28.01515 25.95230 36034 ft 433 kts 231°
2026-05-06 18:54 -28.05701 25.90360 36029 ft 431 kts 231°
2026-05-06 18:55 -28.09879 25.85492 36025 ft 431 kts 231°
2026-05-06 18:55 -28.14053 25.80622 36029 ft 431 kts 230°
2026-05-06 18:55 -28.16134 25.78190 35876 ft 429 kts 230°
2026-05-06 18:56 -28.18211 25.75762 35239 ft 429 kts 230°
2026-05-06 18:56 -28.20292 25.73323 34536 ft 431 kts 230°
2026-05-06 18:56 -28.22370 25.70886 34042 ft 428 kts 230°
2026-05-06 18:56 -28.24423 25.68479 33465 ft 423 kts 230°
2026-05-06 18:57 -28.26466 25.66083 32769 ft 422 kts 230°
2026-05-06 18:57 -28.28499 25.63697 32155 ft 419 kts 230°
2026-05-06 18:57 -28.30510 25.61333 31595 ft 416 kts 227°
2026-05-06 18:57 -28.32547 25.58935 30618 ft 427 kts 226°
2026-05-06 18:58 -28.34656 25.56455 30213 ft 446 kts 226°
2026-05-06 18:58 -28.36847 25.53878 30023 ft 459 kts 226°
2026-05-06 18:58 -28.39084 25.51249 30010 ft 467 kts 226°
2026-05-06 18:59 -28.43689 25.45842 30017 ft 483 kts 226°
2026-05-06 18:59 -28.48383 25.40313 30002 ft 487 kts 226°
2026-05-06 19:00 -28.53056 25.34791 30015 ft 487 kts 226°
2026-05-06 19:00 -28.57757 25.29238 30003 ft 488 kts 226°
2026-05-06 19:01 -28.62459 25.23674 30017 ft 488 kts 226°
2026-05-06 19:01 -28.67188 25.18123 30009 ft 488 kts 226°
2026-05-06 19:02 -28.71930 25.12591 30000 ft 488 kts 226°
2026-05-06 19:02 -28.75897 25.07953 30009 ft 488 kts 226°
2026-05-06 19:03 -28.80623 25.02399 30011 ft 488 kts 226°
2026-05-06 19:03 -28.85345 24.96840 30018 ft 488 kts 226°
2026-05-06 19:04 -28.90062 24.91280 30007 ft 487 kts 226°
2026-05-06 19:04 -28.94781 24.85720 30014 ft 487 kts 226°
2026-05-06 19:05 -28.99485 24.80149 30002 ft 487 kts 226°
2026-05-06 19:05 -29.04159 24.74624 30001 ft 487 kts 226°
2026-05-06 19:06 -29.08865 24.69059 30011 ft 487 kts 226°
2026-05-06 19:06 -29.13568 24.63486 30003 ft 487 kts 226°
2026-05-06 19:07 -29.18263 24.57904 30011 ft 487 kts 226°
2026-05-06 19:07 -29.22956 24.52312 30002 ft 487 kts 226°
2026-05-06 19:08 -29.27658 24.46716 30013 ft 488 kts 226°
2026-05-06 19:08 -29.32360 24.41118 30000 ft 488 kts 226°
2026-05-06 19:09 -29.37055 24.35505 30009 ft 488 kts 226°
2026-05-06 19:09 -29.41749 24.29888 30002 ft 488 kts 226°
2026-05-06 19:10 -29.46433 24.24267 30005 ft 487 kts 226°
2026-05-06 19:10 -29.51120 24.18646 30001 ft 487 kts 226°
2026-05-06 19:11 -29.55803 24.13023 30011 ft 487 kts 226°
2026-05-06 19:11 -29.60483 24.07397 30008 ft 487 kts 226°
2026-05-06 19:12 -29.65159 24.01770 30006 ft 487 kts 226°
2026-05-06 19:12 -29.69831 23.96128 30014 ft 487 kts 226°
2026-05-06 19:13 -29.74503 23.90481 30003 ft 487 kts 226°
2026-05-06 19:13 -29.79171 23.84833 30012 ft 487 kts 226°
2026-05-06 19:14 -29.83837 23.79172 30012 ft 487 kts 226°
2026-05-06 19:14 -29.88506 23.73514 30006 ft 487 kts 226°
2026-05-06 19:15 -29.93172 23.67852 30010 ft 487 kts 226°
2026-05-06 19:15 -29.97826 23.62185 30013 ft 486 kts 227°
2026-05-06 19:16 -30.02474 23.56511 30003 ft 487 kts 227°
2026-05-06 19:16 -30.07122 23.50837 30023 ft 486 kts 227°
2026-05-06 19:17 -30.11742 23.45194 30000 ft 486 kts 227°
2026-05-06 19:17 -30.16393 23.39510 30012 ft 487 kts 227°
2026-05-06 19:18 -30.21040 23.33810 30009 ft 488 kts 227°
2026-05-06 19:18 -30.25697 23.28087 30002 ft 489 kts 227°
2026-05-06 19:19 -30.30359 23.22351 30012 ft 489 kts 227°
2026-05-06 19:19 -30.34808 23.16860 30013 ft 489 kts 227°
2026-05-06 19:20 -30.39487 23.11090 30002 ft 489 kts 227°
2026-05-06 19:20 -30.44146 23.05338 30021 ft 489 kts 227°
2026-05-06 19:21 -30.48812 22.99601 30014 ft 489 kts 227°
2026-05-06 19:21 -30.53472 22.93851 30002 ft 489 kts 227°
2026-05-06 19:22 -30.58119 22.88080 30002 ft 489 kts 227°
2026-05-06 19:22 -30.62783 22.82323 30015 ft 489 kts 226°
2026-05-06 19:23 -30.67465 22.76588 30007 ft 490 kts 227°
2026-05-06 19:23 -30.72116 22.70805 30001 ft 489 kts 227°
2026-05-06 19:24 -30.76745 22.64997 30015 ft 490 kts 227°
2026-05-06 19:24 -30.81379 22.59184 30001 ft 490 kts 227°
2026-05-06 19:25 -30.86023 22.53363 30013 ft 491 kts 227°
2026-05-06 19:25 -30.90669 22.47550 30017 ft 491 kts 227°
2026-05-06 19:26 -30.95326 22.41708 30000 ft 491 kts 227°
2026-05-06 19:26 -30.99967 22.35865 30011 ft 491 kts 227°
2026-05-06 19:27 -31.04613 22.30016 30011 ft 492 kts 227°
2026-05-06 19:27 -31.09246 22.24171 30001 ft 491 kts 227°
2026-05-06 19:28 -31.13884 22.18295 30014 ft 492 kts 227°
2026-05-06 19:28 -31.18517 22.12429 30012 ft 491 kts 227°
2026-05-06 19:29 -31.23149 22.06560 30023 ft 491 kts 227°
2026-05-06 19:29 -31.27730 22.00731 30021 ft 490 kts 227°
2026-05-06 19:30 -31.32349 21.94849 30015 ft 491 kts 227°
2026-05-06 19:30 -31.36975 21.88964 30011 ft 491 kts 227°
2026-05-06 19:31 -31.41590 21.83077 30002 ft 490 kts 227°
2026-05-06 19:31 -31.48500 21.74248 30009 ft 490 kts 227°
2026-05-06 19:32 -31.53103 21.68359 30002 ft 489 kts 227°
2026-05-06 19:32 -31.57688 21.62462 30018 ft 490 kts 228°
2026-05-06 19:33 -31.62298 21.56580 30001 ft 490 kts 227°
2026-05-06 19:33 -31.67006 21.50803 30009 ft 489 kts 226°
2026-05-06 19:34 -31.71749 21.45063 30014 ft 490 kts 226°
2026-05-06 19:34 -31.76464 21.39289 30013 ft 490 kts 226°
2026-05-06 19:35 -31.81165 21.33460 30002 ft 491 kts 226°
2026-05-06 19:35 -31.85873 21.27642 30015 ft 491 kts 226°
2026-05-06 19:36 -31.90582 21.21823 30012 ft 491 kts 226°
2026-05-06 19:36 -31.95283 21.16000 30002 ft 490 kts 226°
2026-05-06 19:37 -31.99976 21.10181 30021 ft 490 kts 226°
2026-05-06 19:37 -32.03878 21.05330 29998 ft 491 kts 226°
2026-05-06 19:38 -32.09362 20.98498 30015 ft 491 kts 227°
2026-05-06 19:38 -32.14053 20.92655 30010 ft 490 kts 226°
2026-05-06 19:39 -32.18742 20.86804 30002 ft 491 kts 227°
2026-05-06 19:39 -32.23431 20.80934 30014 ft 491 kts 227°
2026-05-06 19:40 -32.28119 20.75054 30001 ft 492 kts 227°
2026-05-06 19:40 -32.32814 20.69167 30019 ft 492 kts 227°
2026-05-06 19:41 -32.37473 20.63316 30000 ft 492 kts 227°
2026-05-06 19:41 -32.42156 20.57410 30011 ft 493 kts 227°
2026-05-06 19:42 -32.46849 20.51480 30013 ft 492 kts 227°
2026-05-06 19:42 -32.51533 20.45575 30002 ft 492 kts 227°
2026-05-06 19:43 -32.56205 20.39673 30013 ft 490 kts 227°
2026-05-06 19:43 -32.60849 20.33791 30014 ft 487 kts 227°
2026-05-06 19:44 -32.65470 20.27925 30001 ft 487 kts 227°
2026-05-06 19:44 -32.70089 20.22050 30017 ft 487 kts 227°
2026-05-06 19:45 -32.74711 20.16160 30002 ft 488 kts 227°
2026-05-06 19:45 -32.79320 20.10274 29997 ft 486 kts 227°
2026-05-06 19:46 -32.81610 20.07341 29509 ft 478 kts 227°
2026-05-06 19:46 -32.83835 20.04491 29368 ft 462 kts 227°
2026-05-06 19:46 -32.85984 20.01746 29238 ft 446 kts 227°
2026-05-06 19:46 -32.88066 19.99091 29111 ft 432 kts 227°
2026-05-06 19:47 -32.90079 19.96521 28982 ft 418 kts 227°
2026-05-06 19:47 -32.92040 19.94017 28703 ft 410 kts 227°
2026-05-06 19:47 -32.93969 19.91545 28299 ft 405 kts 227°
2026-05-06 19:47 -32.95870 19.89098 27764 ft 402 kts 227°
2026-05-06 19:48 -32.97789 19.86625 26705 ft 411 kts 226°
2026-05-06 19:48 -32.99088 19.84953 26015 ft 418 kts 226°
2026-05-06 19:48 -33.01056 19.82421 25651 ft 418 kts 226°
2026-05-06 19:48 -33.03081 19.79820 25417 ft 438 kts 226°
2026-05-06 19:49 -33.05193 19.77106 25179 ft 456 kts 226°
2026-05-06 19:49 -33.07380 19.74291 24944 ft 468 kts 226°
2026-05-06 19:49 -33.09594 19.71433 24705 ft 470 kts 226°
2026-05-06 19:49 -33.11807 19.68569 24475 ft 469 kts 226°
2026-05-06 19:50 -33.14009 19.65719 24252 ft 467 kts 226°
2026-05-06 19:50 -33.16211 19.62870 24020 ft 466 kts 226°
2026-05-06 19:50 -33.18401 19.60033 23802 ft 463 kts 226°
2026-05-06 19:50 -33.20581 19.57206 23555 ft 461 kts 226°
2026-05-06 19:51 -33.22746 19.54398 23278 ft 459 kts 226°
2026-05-06 19:51 -33.24901 19.51608 23013 ft 457 kts 226°
2026-05-06 19:51 -33.27057 19.48818 22750 ft 455 kts 226°
2026-05-06 19:51 -33.29194 19.46044 22484 ft 453 kts 226°
2026-05-06 19:52 -33.31327 19.43274 22210 ft 452 kts 226°
2026-05-06 19:52 -33.33443 19.40519 21959 ft 451 kts 226°
2026-05-06 19:52 -33.35565 19.37753 21696 ft 449 kts 226°
2026-05-06 19:52 -33.37669 19.35010 21449 ft 447 kts 226°
2026-05-06 19:53 -33.39766 19.32275 21008 ft 445 kts 226°
2026-05-06 19:53 -33.41855 19.29552 20003 ft 443 kts 226°
2026-05-06 19:53 -33.43914 19.26867 19437 ft 431 kts 226°
2026-05-06 19:53 -33.45920 19.24247 18727 ft 424 kts 226°
2026-05-06 19:54 -33.47893 19.21662 17929 ft 418 kts 226°
2026-05-06 19:54 -33.49839 19.19108 17072 ft 412 kts 225°
2026-05-06 19:54 -33.51762 19.16584 16240 ft 408 kts 225°
2026-05-06 19:54 -33.53661 19.14087 15443 ft 404 kts 225°
2026-05-06 19:55 -33.55547 19.11609 14583 ft 403 kts 225°
2026-05-06 19:55 -33.57411 19.09165 14368 ft 395 kts 225°
2026-05-06 19:55 -33.59277 19.06719 14223 ft 398 kts 225°
2026-05-06 19:55 -33.61142 19.04274 13932 ft 398 kts 225°
2026-05-06 19:56 -33.63021 19.01811 12839 ft 401 kts 225°
2026-05-06 19:56 -33.64897 18.99348 12194 ft 394 kts 225°
2026-05-06 19:56 -33.66700 18.96968 11938 ft 379 kts 225°
2026-05-06 19:56 -33.68461 18.94644 11693 ft 376 kts 225°
2026-05-06 19:57 -33.70227 18.92311 11450 ft 376 kts 225°
2026-05-06 19:57 -33.71976 18.90002 11203 ft 374 kts 225°
2026-05-06 19:57 -33.73726 18.87684 10958 ft 373 kts 226°
2026-05-06 19:57 -33.75350 18.85248 10714 ft 374 kts 231°
2026-05-06 19:58 -33.76760 18.82668 10467 ft 374 kts 234°
2026-05-06 19:58 -33.78170 18.80015 9875 ft 368 kts 234°
2026-05-06 19:58 -33.79521 18.77452 8664 ft 360 kts 234°
2026-05-06 19:58 -33.80847 18.74914 7545 ft 355 kts 234°
2026-05-06 19:59 -33.82100 18.72478 7070 ft 332 kts 234°
2026-05-06 19:59 -33.83268 18.70190 6271 ft 322 kts 234°
2026-05-06 19:59 -33.84445 18.67894 5249 ft 322 kts 234°
2026-05-06 19:59 -33.85607 18.65626 4472 ft 314 kts 234°
2026-05-06 20:00 -33.86735 18.63424 3808 ft 303 kts 233°
2026-05-06 20:00 -33.87827 18.61296 3153 ft 295 kts 233°
2026-05-06 20:00 -33.89102 18.59401 2482 ft 281 kts 211°
2026-05-06 20:00 -33.90821 18.58599 1830 ft 264 kts 181°
2026-05-06 20:01 -33.92606 18.58973 1156 ft 257 kts 157°
2026-05-06 20:01 -33.94275 18.59651 1047 ft 249 kts 163°
2026-05-06 20:01 -33.95899 18.60150 2124 ft 229 kts 164°
2026-05-06 20:01 -33.97404 18.60577 3402 ft 222 kts 163°
2026-05-06 20:02 -33.98921 18.61014 4838 ft 223 kts 165°
2026-05-06 20:02 -34.00511 18.61486 5629 ft 251 kts 165°
2026-05-06 20:02 -34.02157 18.61985 5944 ft 235 kts 165°
2026-05-06 20:02 -34.03761 18.62469 6081 ft 246 kts 167°
2026-05-06 20:03 -34.05480 18.62585 6105 ft 245 kts 184°
2026-05-06 20:03 -34.07099 18.62104 6103 ft 238 kts 199°
2026-05-06 20:03 -34.08532 18.61100 6110 ft 241 kts 214°
2026-05-06 20:03 -34.09701 18.59618 6108 ft 248 kts 230°
2026-05-06 20:04 -34.10480 18.57741 6115 ft 254 kts 248°
2026-05-06 20:04 -34.10763 18.55616 6115 ft 261 kts 266°
2026-05-06 20:04 -34.10487 18.53428 6114 ft 268 kts 285°
2026-05-06 20:04 -34.09633 18.51419 6116 ft 272 kts 305°
2026-05-06 20:05 -34.08271 18.49826 6113 ft 275 kts 326°
2026-05-06 20:05 -34.06555 18.48839 6115 ft 275 kts 345°
2026-05-06 20:05 -34.04703 18.48267 6114 ft 274 kts 348°
2026-05-06 20:05 -34.02841 18.47759 6113 ft 275 kts 348°
2026-05-06 20:06 -34.00998 18.47164 6112 ft 275 kts 339°
2026-05-06 20:06 -33.99200 18.46393 6111 ft 275 kts 346°
2026-05-06 20:06 -33.97340 18.45847 6110 ft 275 kts 348°
2026-05-06 20:06 -33.95484 18.45340 6114 ft 275 kts 348°
2026-05-06 20:07 -33.93613 18.44843 5945 ft 273 kts 349°
2026-05-06 20:07 -33.91761 18.44355 5762 ft 272 kts 349°
2026-05-06 20:07 -33.89910 18.43861 5589 ft 272 kts 349°
2026-05-06 20:07 -33.88064 18.43363 5412 ft 271 kts 349°
2026-05-06 20:08 -33.86215 18.42953 5236 ft 269 kts
2026-05-06 20:08 -33.84431 18.43394 5059 ft 259 kts 32°
2026-05-06 20:08 -33.83086 18.44738 4890 ft 251 kts 55°
2026-05-06 20:08 -33.82017 18.46376 4706 ft 248 kts 58°
2026-05-06 20:09 -33.81001 18.48046 4524 ft 247 kts 60°
2026-05-06 20:09 -33.80018 18.49728 4344 ft 245 kts 60°
2026-05-06 20:09 -33.79131 18.51453 4167 ft 238 kts 76°
2026-05-06 20:09 -33.78997 18.53359 3987 ft 227 kts 107°
2026-05-06 20:10 -33.79697 18.54981 3810 ft 215 kts 131°
2026-05-06 20:10 -33.80864 18.55998 3631 ft 206 kts 158°
2026-05-06 20:10 -33.82246 18.56359 3389 ft 204 kts 172°
2026-05-06 20:10 -33.83658 18.56435 3064 ft 203 kts 175°
2026-05-06 20:11 -33.85074 18.56503 2737 ft 205 kts 174°
2026-05-06 20:11 -33.86490 18.56570 2526 ft 200 kts 174°
2026-05-06 20:11 -33.87848 18.56710 2537 ft 193 kts 167°
2026-05-06 20:11 -33.89054 18.57230 2369 ft 178 kts 147°
2026-05-06 20:12 -33.90046 18.57915 2177 ft 152 kts 154°
2026-05-06 20:12 -33.90961 18.58402 1824 ft 137 kts 158°
2026-05-06 20:12 -33.91851 18.58692 1408 ft 132 kts 163°
2026-05-06 20:12 -33.92727 18.58948 961 ft 130 kts 161°
2026-05-06 20:13 -33.93589 18.59246 679 ft 127 kts 164°
2026-05-06 20:13 -33.94432 18.59514 471 ft 126 kts 164°
2026-05-06 20:13 -33.95268 18.59779 344 ft 124 kts 164°
2026-05-06 20:13 -33.96115 18.60045 167 ft 122 kts 163°
2026-05-06 20:14 -33.96734 18.60249 158 ft 37 kts 166°
2026-05-06 20:14 -33.96931 18.60306 156 ft 28 kts 166°
2026-05-06 20:14 -33.97109 18.60358 155 ft 17 kts 180°
2026-05-06 20:14 -33.97108 18.60239 155 ft 17 kts 287°
2026-05-06 20:15 -33.97073 18.60088 154 ft 19 kts 288°
2026-05-06 20:15 -33.97059 18.59984 154 ft 8 kts 231°
2026-05-06 20:15 -33.97123 18.59963 154 ft 11 kts 177°
2026-05-06 20:15 -33.97208 18.59989 154 ft 14 kts 166°
2026-05-06 20:16 -33.97314 18.60020 154 ft 17 kts 166°
2026-05-06 20:16 -33.97410 18.60056 154 ft 3 kts 159°
2026-05-06 20:16 -33.97446 18.60051 154 ft 8 kts 224°
2026-05-06 20:16 -33.97461 18.59995 154 ft 3 kts 253°
2026-05-06 20:17 -33.97462 18.59992 154 ft 0 kts 253°